Flag for Germany Weather past 2 weeks in Rheine, North Rhine-Westphalia, Germany

Now
68 °F

Mild.


Feels Like: 68 °F
Forecast: 60 / 86 °F
Wind: 6 mph from Southwest

Location: Rheine-Bentlage

Current Time: Aug 2, 2015 at 11:26:03 AM

Latest Report: Aug 2, 2015 at 10:20 AM


Visibility: N/A

Pressure: 30.15 "Hg

Humidity: 49%

Dew point: 48 °F

Location of RheineLocation

Historic Weather in Rheine — Graph

°F

Rheine temperature yesterday

Maximum temperature yesterday: 75 °F (at 4:20 PM)
Minimum temperature yesterday: 48 °F (at 6:20 AM)
Average temperature yesterday: 61 °F

Past Weeks' High & Low Weather Summary

 TemperatureHumidityPressure
High79 °F (Jul 24, 4:20 PM)100% (Jul 20, 4:20 AM)30.15 "Hg (Jul 20, 4:20 AM)
Low46 °F (Jul 31, 6:20 AM)38% (Aug 1, 2:20 PM)29.45 "Hg (Jul 25, 10:20 AM)
Average62 °F74%29.86 "Hg
* Reported Jul 18 10:20 AM — Aug 2 10:20 AM, Rheine, Weather by CustomWeather, © 2015

Note: Actual official high and low records may vary slightly from our data, if they occured in-between our weather recording intervals... More about our weather records

Advertising

Rheine weather history for previous 24 hours

 ConditionsComfort  
Time TempWeatherWind HumidityBarometerVisibility
10:20 AM
Sun, Aug 2
68 °FMild.6 mph49%30.15 "HgN/A
9:20 AM64 °FMild.No wind68%30.12 "HgN/A
8:20 AM59 °FCool.No wind77%30.12 "HgN/A
7:20 AM50 °FCool.No wind100%30.12 "HgN/A
6:20 AM46 °FCool.No wind100%30.12 "HgN/A
5:20 AM46 °FCool.No wind100%30.09 "HgN/A
4:20 AM48 °FCool.No wind94%30.09 "HgN/A
3:20 AM50 °FCool.No wind94%30.09 "HgN/A
2:20 AM50 °FCool.No wind94%30.09 "HgN/A
1:20 AM50 °FCool.No wind94%30.07 "HgN/A
12:20 AM54 °FCool.No wind88%30.07 "HgN/A
11:20 PM
Sat, Aug 1
55 °FCool.No wind88%30.07 "HgN/A
10:20 PM59 °FCool.1 mph77%30.07 "HgN/A
9:20 PM64 °FMild.2 mph60%30.04 "HgN/A
8:20 PM68 °FMild.6 mph49%30.01 "HgN/A
7:20 PM70 °FMild.6 mph46%30.01 "HgN/A
6:20 PM73 °FMild.9 mph44%29.98 "HgN/A
5:20 PM73 °FMild.7 mph41%29.98 "HgN/A
4:20 PM75 °FMild.3 mph39%29.98 "HgN/A
3:20 PM72 °FMild.5 mph41%29.98 "HgN/A
2:20 PM73 °FMild.2 mph38%29.98 "HgN/A
1:20 PM72 °FMild.2 mph41%30.01 "HgN/A
12:20 PM68 °FMild.2 mph46%30.01 "HgN/A
11:20 AM66 °FMild.3 mph49%30.01 "HgN/A
Weather by CustomWeather, © 2015

See weather overviewHow to use our weather pages